Welcome to the New NWS' Forecast!
Most changes are behind the scenes, but click here for differences you might notice.

Regional Weather Roundup (RWR)

Issued by Gray - Portland, ME (GYX)

                            
534 
ASUS41 KGYX 150905
RWRGYX
WEATHER ROUNDUP FOR MAINE AND NEW HAMPSHIRE
NATIONAL WEATHER SERVICE GRAY ME
500 AM EDT SUN JUL 15 2018

MEZ002-005-006-010-012-015-018-020-021-024-026-027-029-151000-
MAINE
  
CITY           SKY/WX    TMP DP  RH WIND       PRES   REMARKS
PORTLAND       CLOUDY    65  61  87 CALM      30.01S                  
SANFORD        LGT RAIN  62  61  96 CALM      30.00F FOG              
BAR HARBOR     CLOUDY    59  57  93 SW5       30.03S                  
WISCASSET      CLOUDY    63  61  93 SW3       30.02F                  
ROCKLAND       CLOUDY    59  58  96 S3        30.01F                  
FRYEBURG       FAIR      59  59 100 CALM      30.01F                  
LEWISTONAUBURN CLOUDY    60  57  89 N3        30.02F                  
AUGUSTA        CLOUDY    61  57  87 CALM      30.02F                  
WATERVILLE     FAIR      59  57  93 S5        29.99F                  
BANGOR         CLOUDY    60  58  92 S6        30.01F                  
GREENVILLE       N/A     54  54 100 CALM      29.99F                  
MILLINOCKET    MOCLDY    57  52  83 CALM      30.01S                  
HOULTON        CLOUDY    60  50  69 S5        29.98S                  
PRESQUE ISLE   CLOUDY    61  52  72 CALM      29.99S                  
FRENCHVILLE    CLOUDY    63  56  78 S5        29.96S                  
CARIBOU        CLOUDY    62  52  69 S5        29.97S                  
$$

NHZ002-005-008-009-011-012-014-151000-
NEW HAMPSHIRE
  
CITY           SKY/WX    TMP DP  RH WIND       PRES   REMARKS
PORTSMOUTH     LGT RAIN  64  64  98 CALM      29.98F FOG              
ROCHESTER      CLOUDY    63  63 100 CALM      30.00S                  
NASHUA         CLOUDY    64  64 100 CALM      29.99F                  
MANCHESTER     CLOUDY    66  62  87 NE5       29.98S                  
CONCORD        CLOUDY    65  60  84 CALM      29.99F                  
PLYMOUTH       CLOUDY    64  61  93 CALM      30.00S                  
BERLIN         CLOUDY    60  58  92 CALM      30.00F                  
WHITEFIELD     CLOUDY    64  63  96 CALM      29.99F                  
JAFFREY        CLOUDY    64  63  96 CALM      30.01F FOG              
KEENE          CLOUDY    66  66 100 CALM      29.99S                  
LEBANON        CLOUDY    67  63  87 CALM      29.98F                  
MT WASHINGTON  FOG       52  52 100 NW26        N/A  VSB 1/16         
$$

VTZ005-007-008-151000-
VERMONT
  
CITY           SKY/WX    TMP DP  RH WIND       PRES   REMARKS
ST JOHNSBURY     N/A     65  64  97 MISG      29.97F                  
MONTPELIER     CLOUDY    67  66  97 S6        30.03S                  
BURLINGTON     FAIR      68  65  90 CALM      29.95S                  
$$

MAZ007-012-024-CTZ003-RIZ002-NYZ038-NYZ072-151000-
SOUTHERN NEW ENGLAND AND NY
  
CITY           SKY/WX    TMP DP  RH WIND       PRES   REMARKS
BOSTON         CLOUDY    68  64  87 S5        29.98F                  
NANTUCKET      CLOUDY    61  57  87 SE8       30.01F                  
PROVIDENCE     FAIR      70  67  90 CALM      29.98F                  
HARTFORD       DRIZZLE   71  69  93 CALM      29.98F                  
ALBANY         CLOUDY    72  68  87 S10       29.99F                  
NEW YORK CITY  TSTM      72  68  87 S9        30.00F                  
$$

ANZ081-ANZ082-ANZ150-NHZ014-MEZ023>029-151000-
COASTAL MARINE OBSERVATIONS
  
STATION/POSITION TIME  TEMP    WIND        PRES    WAVE
                       AIR SEA DIR/SP/G            HT/PER
                 (UTC) (F)     (DEG/KT/KT) (MB)    (FT/S)
MOUNT DESERT ROC 0900   60     160/  9/  9 1016.8F
MATINICUS ROCK   0800   58     150/  8/  8 1016.5F
ISLE OF SHOALS   0800   65     190/  9/  9 1015.4F
JEFFREYS LEDGE   0836      66                N/A     3/ 6
$$

.............KEY..............
   WCI - WIND CHILL
   TC  - TEMPERATURE IN CELSIUS
   VSB - VISIBILITY IN MILES
   HX  - HEAT INDEX
   FAIR- INDICATES FEW OR NO CLOUDS BELOW 12,000 FT, WITH NO 
         SIGNIFICANT WEATHER AND/OR OBSTRUCTIONS TO VISIBILITY.